Regional Weather Roundup
Issued by NWS Albany, NY

Home | Current Version | Previous Version | Graphics & Text | Print | Product List | Glossary Off
Versions: 1 2 3 4 5 6 7 8 9 10 11 12 13 14 15 16 17 18 19 20 21 22 23 24 25 26 27 28 29 30 31 32 33 34 35 36 37 38 39 40 41 42 43 44 45 46 47 48 49 50

618
ASUS41 KALY 290510
RWRALY

NEW YORK STATE HOURLY WEATHER ROUNDUP
NATIONAL WEATHER SERVICE ALBANY NY
100 AM EDT WED MAR 29 2017

NOTE: "FAIR" INDICATES FEW OR NO CLOUDS BELOW 12,000 FEET WITH NO
SIGNIFICANT WEATHER AND/OR NO OBSTRUCTIONS TO VISIBILITY.

NYZ032-033-038>043-046>054-057>066-NYZ062>081-082-084-290600-
EAST


CITY           SKY/WX    TMP DP  RH WIND       PRES   REMARKS
ALBANY         CLOUDY    40  37  89 N6        30.02S
GLENS FALLS    CLOUDY    39  36  89 N5        30.03R
POUGHKEEPSIE   CLOUDY    42  41  96 NW5       29.95R
NEWBURGH       CLOUDY    43  43 100 CALM      29.95S FOG
MONTGOMERY     FOG       43  41  93 N3        29.94S VSB 3/4
WHITE PLAINS   CLOUDY    43  41  93 W7        29.92S
ISLIP          CLOUDY    42  42 100 N7        29.90F
NEW YORK CITY  CLOUDY    44  41  89 NW6       29.93S
CENTRAL PARK   CLOUDY    44  43  96 CALM      29.96R FOG
$$

NYZ005>009-017-018-044>046-055-056-290600-
CENTRAL


CITY           SKY/WX    TMP DP  RH WIND       PRES   REMARKS
FULTON         CLOUDY    38  34  85 NW3       30.12R
SYRACUSE       CLOUDY    39  35  86 NW9       30.11R WCI  33
ROME           CLOUDY    39  35  86 NW7       30.09S WCI  34
ELMIRA         CLOUDY    41  36  82 NE6       30.09R
BINGHAMTON     CLOUDY    36  34  92 N17G28    30.03R WCI  26
MONTICELLO     CLOUDY    43  43 100 NW6       29.97S
$$

NYZ026>034-041>043-087-290600-
NORTH


CITY           SKY/WX    TMP DP  RH WIND       PRES   REMARKS
WATERTOWN      CLOUDY    38  35  89 CALM      30.11R
FORT DRUM      NOT AVBL
MASSENA        CLOUDY    40  31  70 N7        30.12R
SARANAC LAKE   CLOUDY    35  35 100 N3        30.01S
PLATTSBURGH    LGT RAIN  36  35  96 NW3       30.07R VSB 1/2
$$

NYZ001>004-010>016-019>021-085-290600-
WEST


CITY           SKY/WX    TMP DP  RH WIND       PRES   REMARKS
NIAGARA FALLS  CLOUDY    42  33  70 NW7       30.16R
BUFFALO        CLOUDY    41  34  76 N8        30.16R
DUNKIRK        CLOUDY    39  36  89 NW7       30.17R WCI  34
JAMESTOWN      CLOUDY    37  36  93 N8        30.12R WCI  31
WELLSVILLE     CLOUDY    41  38  89 N6        30.09R
ROCHESTER      CLOUDY    42  36  79 CALM      30.15R
PENN YAN       CLOUDY    40  34  79 N5        30.12R
$$

             KEY
       WCI = WIND CHILL INDEX
       VSB = VISIBILITY
       HX  = HEAT INDEX
$$




USA.gov is the U.S. government's official web portal to all federal, state and local government web resources and services.